Regional Weather Roundup
Issued by NWS

Home | Current Version | Previous Version | Graphics & Text | Print | Product List | Glossary On
Versions: 1 2 3 4 5 6 7 8 9 10 11 12 13 14 15 16 17 18 19 20 21 22 23 24 25 26 27 28 29 30 31 32 33 34 35 36 37 38 39 40 41 42 43 44 45 46 47 48 49 50
030
ASUS43 KMPX 131810
RWRMN
WEATHER ROUNDUP FOR MINNESOTA
NATIONAL WEATHER SERVICE TWIN CITIES/CHANHASSEN MN
1200 PM CST WED DEC 13 2017


NOTE: "FAIR" INDICATES FEW OR NO CLOUDS BELOW 12,000 FEET WITH NO
SIGNIFICANT WEATHER AND/OR OBSTRUCTIONS TO VISIBILITY. N/A MEANS
CURRENT SKY AND/OR WEATHER CONDITIONS ARE NOT AVAILABLE.

MNZ060>063-068>070-131900-
   Twin Cities Metro

CITY           SKY/WX    TMP DP  RH WIND       PRES   REMARKS
TWIN CITIES    CLOUDY    25  19  78 N21G33    29.57R WCI  11
6HR MIN TEMP:  25; 6HR MAX TEMP:  30; 6HR PCP:  0.01;

ST PAUL        CLOUDY    24  19  81 NW21G31   29.58R WCI   9
CRYSTAL        CLOUDY    24  15  68 NW20G29   29.58R WCI  10
BLAINE         CLOUDY    25  19  80 N20G25    29.57R WCI  11
LAKEVILLE      CLOUDY    25  21  86 NW12G22   29.57R WCI  14
EDEN PRAIRIE   CLOUDY    27  20  75 N20G30    29.57R WCI  13
6HR MIN TEMP:  27; 6HR MAX TEMP:  30; 6HR PCP: TRACE;

SOUTH ST PAUL  CLOUDY    25  19  76 NW18G26   29.56R WCI  12
LAKE ELMO      CLOUDY    25  19  80 N20G28    29.56R WCI  11
$$
MNZ001>005-007-008-013>017-022>024-027-028-131900-
   Northwest Minnesota

CITY           SKY/WX    TMP DP  RH WIND       PRES   REMARKS
BEMIDJI        LGT SNOW  16  13  87 NW13      29.69R WCI   3
HALLOCK        FLURRIES  21  18  86 N13       29.81R WCI   9
ROSEAU         LGT SNOW  18  12  79 N13       29.78R WCI   4
WARROAD        LGT SNOW  16  12  86 N9        29.77R WCI   4
THIEF RVR FALL MIX PCPN  19  17  92 N15       29.76R FOG     WCI   5
CROOKSTON      CLOUDY    23  21  93 N20G26    29.79R WCI   8
FOSSTON        CLOUDY    18  16  93 N16       29.74R FOG     WCI   3
DETROIT LAKES  CLOUDY    23  21  93 N22G30    29.72R WCI   8
MOORHEAD       CLOUDY    27  23  86 N22G30    29.78S WCI  12
PARK RAPIDS    CLOUDY    19  16  88 N16       29.67R WCI   4
MAHNOMEN       CLOUDY    21  18  88 N18G24    29.72S WCI   6
$$
MNZ006-009>011-018-025>026-131900-
   North Central Minnesota

CITY           SKY/WX    TMP DP  RH WIND       PRES   REMARKS
BAUDETTE       LGT SNOW  15  11  83 N9        29.74R FOG     WCI   3
FLAG ISLAND    LGT SNOW  12   9  85 N10       29.77R WCI  -1
INTL FALLS     LGT SNOW  17  10  74 E7        29.71R VSB 3/4 WCI   8
6HR MIN TEMP:  15; 6HR MAX TEMP:  17; 6HR PCP:  0.05;

WASKISH        FLURRIES  16  12  86 NW8       29.72R WCI   5
BIG FORK       LGT SNOW  19  14  79 N5        29.66R WCI  13
LONGVILLE      LGT SNOW  18  14  86 NW8       29.66S WCI   7
GRAND RAPIDS   LGT SNOW  20  15  81 NW12      29.65R WCI   8
CRANE LAKE     CLOUDY    16  12  86 NE6       29.70R WCI   7
ORR            CLOUDY    18  12  79 CALM      29.64R HAZE
COOK           LGT SNOW  18  14  86 NE5       29.65R WCI  11
WALKER         CLOUDY    17  13  86 N12G17    29.68R WCI   4
$$
MNZ012-019>021-037-131900-
   Northeast Minnesota

CITY           SKY/WX    TMP DP  RH WIND       PRES   REMARKS
DULUTH         LGT SNOW  21  18  88 NE14G26   29.56R FOG     WCI   8
6HR MIN TEMP:  18; 6HR MAX TEMP:  22; 6HR PCP:  0.05;

ELY            LGT SNOW  18  12  79 NE8       29.63R WCI   7
HIBBING        LGT SNOW  20  14  77 N10       29.62R WCI   9
EVELETH        MIX PCPN  19  12  76 N8        29.62R WCI   8
DULUTH HARBOR  LGT SNOW  27  23  86 NE29      29.59R WCI  11
TWO HARBORS    LGT SNOW  27  21  80 NE13G18   29.57S VSB 1   WCI  16
SILVER BAY     LGT SNOW  23  21  93 NE12G23   29.59  VSB 1   WCI  12
GRAND MARAIS     N/A     23  17  78 NE13G22   29.66R WCI  11
G MARAIS ARPRT LGT SNOW  16   9  73 NE15      29.60R WCI   1
$$
MNZ029>031-032-039>041-046>048-054>057-064-131900-
   West Central Minnesota

CITY           SKY/WX    TMP DP  RH WIND       PRES   REMARKS
FERGUS FALLS   CLOUDY    25  23  93 N26G35    29.76R WCI   9
WHEATON        CLOUDY    30  25  80 NW20G28   29.79R WCI  18
MORRIS         CLOUDY    28  25  86 N30G41    29.72R WCI  13
ALEXANDRIA     CLOUDY    25  20  81 N28G36    29.67R WCI   9
ELBOW LAKE     CLOUDY    26  23  87 N29G38    29.73S WCI  10
WADENA         MIX PCPN  21  19  93 NW14G21   29.67R WCI   8
GLENWOOD       PTSUNNY   27  21  80 NW26G36   29.66S WCI  11
APPLETON       CLOUDY    32  25  74 NW31G39   29.74R WCI  17
BENSON         CLOUDY    28  23  80 N29G38    29.72R WCI  13
ORTONVILLE     CLOUDY    32  25  74 N23G35    29.76R WCI  19
MADISON        CLOUDY    36  27  69 N30G44    29.76R
WILLMAR        CLOUDY    30  25  80 NW29G36   29.68R WCI  15
$$
MNZ033>034-036-042>043-049>051-058-059-131900-
   Central Minnesota

CITY           SKY/WX    TMP DP  RH WIND       PRES   REMARKS
ST CLOUD       CLOUDY    23  19  85 N13G24    29.62R WCI  11
6HR MIN TEMP:  23; 6HR MAX TEMP:  28; 6HR PCP:  0.04;

SAUK CENTRE    CLOUDY    25  21  85 NW22G33   29.65R WCI  11
PAYNESVILLE    CLOUDY    27  24  89 NW22G32   29.65R WCI  13
AITKIN         CLOUDY    18  16  93 NW10      29.62R WCI   6
PINE RIVER     CLOUDY    18  12  79 N9G18     29.70R WCI   6
BRAINERD       CLOUDY    21  15  78 N16       29.65R HAZE    WCI   7
STAPLES        CLOUDY    19  18  93 N14G24    29.66R WCI   6
LONG PRAIRIE   CLOUDY    25  21  86 NW17G26   29.64R WCI  11
LITTLE FALLS   CLOUDY    25  18  74 N12G21    29.65R WCI  14
LITCHFIELD     CLOUDY    28  25  86 NW21G31   29.64R WCI  15
BUFFALO        CLOUDY    25  20  80 NW17G24   29.62R WCI  12
MAPLE LAKE     CLOUDY    26  23  86 N16G24    29.63R WCI  14
HUTCHINSON     CLOUDY    30  26  86 NW22G31   29.63R WCI  17
$$
MNZ037-044-045-052-053-131900-
   East Central Minnesota

CITY           SKY/WX    TMP DP  RH WIND       PRES   REMARKS
PRINCETON      CLOUDY    25  18  74 NW15G24   29.61R WCI  12
MORA           CLOUDY    21  18  86 N10G18    29.61R WCI  10
CAMBRIDGE      CLOUDY    23  16  74 NW14G20   29.59S WCI  11
RUSH CITY      CLOUDY    22  17  81 NW7G17    29.58R WCI  14
MOOSE LAKE     CLOUDY    25  19  80 N10G17    29.57R HAZE    WCI  15
HINCKLEY       CLOUDY    23  19  86 N9        29.58R WCI  13
CLOQUET        LGT SNOW  23  18  80 N9        29.57R VSB 1   WCI  13
MCGREGOR       CLOUDY    21  18  86 N14       29.62R WCI   8
$$
MNZ071>073-080-081-089-090-097-098-131900-
   Southwest Minnesota

CITY           SKY/WX    TMP DP  RH WIND       PRES   REMARKS
MONTEVIDEO     CLOUDY    32  27  80 N32G41    29.72R WCI  17
GRANITE FALLS  CLOUDY    34  28  77 NW33G45   29.73R WCI  19
CANBY          CLOUDY    34  30  85 NW24G32   29.77R WCI  21
MARSHALL       CLOUDY    33  26  75 N36G46    29.70R WCI  18
REDWOOD FALLS  CLOUDY    32  23  69 NW22G31   29.68R WCI  19
OLIVIA         CLOUDY    30  27  86 NW24G33   29.67R WCI  16
PIPESTONE      CLOUDY    34  28  80 N16G32    29.73R WCI  23
WINDOM           N/A     32  19  59 NW38G49   29.66R WCI  16
WORTHINGTON    CLOUDY    32  29  88 NW32      29.71R WCI  17
JACKSON        CLOUDY    32  28  86 MISG      29.67R
SLAYTON        CLOUDY    32  29  89 NW26G35   29.72R WCI  18
$$
MNZ065>067-074>077-082>085-091>093-131900-
   South Central Minnesota

CITY           SKY/WX    TMP DP  RH WIND       PRES   REMARKS
MANKATO        CLOUDY    31  26  82 NW30G36   29.58R WCI  16
NEW ULM        CLOUDY    30  25  80 NW30G38   29.63R WCI  15
ST JAMES       CLOUDY    30  27  86 NW24G40   29.65R WCI  16
FAIRMONT       CLOUDY    32  26  78 NW30G41   29.62R WCI  18
GLENCOE        CLOUDY    32  27  81 NW16G26   29.60R WCI  21
FARIBAULT      CLOUDY    28  25  86 NW21G31   29.56R WCI  15
OWATONNA       CLOUDY    30  27  86 NW25G37   29.54R WCI  16
WASECA         CLOUDY    32  28  86 NW23G31   29.57R WCI  19
ALBERT LEA     CLOUDY    32  27  80 NW23G35   29.53R WCI  19
$$
MNZ078>079-086>088-094>096-131900-
   Southeast Minnesota

CITY           SKY/WX    TMP DP  RH WIND       PRES   REMARKS
ROCHESTER      CLOUDY    26  23  88 NW28G37   29.47R WCI  10
6HR MIN TEMP:  26; 6HR MAX TEMP:  33; 6HR PCP: TRACE;

RED WING       CLOUDY    25  18  74 NW14G25   29.52R WCI  13
STANTON        CLOUDY    28  24  82 NW23      29.54R WCI  14
DODGE CENTER   CLOUDY    27  23  86 NW22G30   29.50R WCI  12
WINONA           N/A     28  23  80 NW13G24   29.47R WCI  18
AUSTIN         CLOUDY    30  27  86 NW21G35   29.49R WCI  17
PRESTON        CLOUDY    27  22  82 N26G37    29.45R WCI  11
$$
ABBREVIATIONS USED IN REMARKS
   TC - TEMPERATURES IN CELSIUS
  WCI - WIND CHILL INDEX
   HX - HEAT INDEX
  VSB - VISIBILITY
$$




USA.gov is the U.S. government's official web portal to all federal, state and local government web resources and services.